{"data":{"norad_id":53033,"epoch":"2026-05-25T03:10:29.443008Z","epoch_age_seconds":57631,"freshness":"FRESH","line1":"1 53033U 22076AZ  26145.13228522 -.00002363  00000+0 -13042-3 0  9992","line2":"2 53033  53.2126  90.9565 0002261  88.4068 271.7183 15.08833808214666","mean_motion":15.08833808,"eccentricity":0.0002261,"inclination_deg":53.2126,"raan_deg":90.9565,"arg_perigee_deg":88.4068,"mean_anomaly_deg":271.7183,"bstar":-0.00013042,"rev_number":21466,"period_min":95.437946337427,"perigee_km":538.19817846045,"apogee_km":541.32645253092,"semimajor_km":6917.8993154957,"source":"CELESTRAK","updated_at":"2026-05-25T13:38:17.283868Z"}}